TimeEDT,TemperatureF,Dew PointF,Humidity,Sea Level PressureIn,VisibilityMPH,Wind Direction,Wind SpeedMPH,Gust SpeedMPH,PrecipitationIn,Events,Conditions,WindDirDegrees,DateUTC
12:15 AM,73.4,63.5,71,30.27,10.0,Calm,Calm,-,N/A,,Clear,0,2013-07-14 04:15:00
12:35 AM,73.4,63.5,71,30.27,10.0,Calm,Calm,-,N/A,,Clear,0,2013-07-14 04:35:00
12:55 AM,73.4,63.5,71,30.27,10.0,Calm,Calm,-,N/A,,Clear,0,2013-07-14 04:55:00
1:15 AM,71.8,64.4,77,30.26,10.0,Calm,Calm,-,N/A,,Clear,0,2013-07-14 05:15:00
1:35 AM,72.1,64.8,78,30.26,10.0,Calm,Calm,-,N/A,,Clear,0,2013-07-14 05:35:00
1:55 AM,71.6,65.3,80,30.26,10.0,Calm,Calm,-,N/A,,Clear,0,2013-07-14 05:55:00
2:15 AM,71.6,65.3,80,30.26,10.0,Calm,Calm,-,N/A,,Clear,0,2013-07-14 06:15:00
2:35 AM,70.9,65.3,82,30.26,10.0,Calm,Calm,-,N/A,,Clear,0,2013-07-14 06:35:00
2:55 AM,70.7,65.3,83,30.26,10.0,Calm,Calm,-,N/A,,Clear,0,2013-07-14 06:55:00
3:15 AM,69.8,65.3,86,30.26,10.0,Calm,Calm,-,N/A,,Clear,0,2013-07-14 07:15:00
3:34 AM,70.0,65.3,85,30.26,10.0,ENE,3.5,-,N/A,,Clear,70,2013-07-14 07:34:00
3:55 AM,70.2,65.3,85,30.26,10.0,NE,4.6,-,N/A,,Clear,40,2013-07-14 07:55:00
4:15 AM,69.3,64.9,86,30.26,10.0,NE,4.6,-,N/A,,Clear,40,2013-07-14 08:15:00
4:35 AM,69.1,65.3,88,30.27,10.0,NNE,3.5,-,N/A,,Clear,20,2013-07-14 08:35:00
4:55 AM,68.9,64.9,87,30.27,10.0,Calm,Calm,-,N/A,,Clear,0,2013-07-14 08:55:00
5:14 AM,68.5,64.9,88,30.27,10.0,Calm,Calm,-,N/A,,Clear,0,2013-07-14 09:14:00
5:35 AM,69.1,65.3,88,30.28,10.0,NE,4.6,-,N/A,,Clear,40,2013-07-14 09:35:00
5:55 AM,68.9,64.9,87,30.28,7.0,NE,4.6,-,N/A,,Clear,40,2013-07-14 09:55:00
6:15 AM,69.1,65.3,88,30.29,10.0,NE,3.5,-,N/A,,Clear,50,2013-07-14 10:15:00
6:35 AM,68.7,65.1,88,30.29,10.0,NE,3.5,-,N/A,,Clear,40,2013-07-14 10:35:00
6:55 AM,68.9,64.9,87,30.29,10.0,NE,4.6,-,N/A,,Clear,40,2013-07-14 10:55:00
7:15 AM,69.1,65.3,88,30.30,10.0,ENE,3.5,-,N/A,,Clear,60,2013-07-14 11:15:00
7:34 AM,69.8,65.5,86,30.29,10.0,ENE,3.5,-,N/A,,Clear,60,2013-07-14 11:34:00
7:55 AM,70.7,66.0,85,30.30,10.0,ENE,3.5,-,N/A,,Clear,70,2013-07-14 11:55:00
8:15 AM,71.6,66.4,84,30.30,10.0,ENE,3.5,-,N/A,,Clear,70,2013-07-14 12:15:00
8:34 AM,72.3,67.1,84,30.30,10.0,ENE,3.5,-,N/A,,Clear,70,2013-07-14 12:34:00
8:55 AM,73.6,67.6,82,30.30,10.0,ENE,3.5,-,N/A,,Clear,70,2013-07-14 12:55:00
9:14 AM,74.8,68.0,79,30.30,10.0,ENE,3.5,-,N/A,,Clear,60,2013-07-14 13:14:00
9:35 AM,76.6,68.5,76,30.30,10.0,Calm,Calm,-,N/A,,Clear,0,2013-07-14 13:35:00
9:55 AM,78.3,68.7,72,30.30,10.0,Calm,Calm,-,N/A,,Clear,0,2013-07-14 13:55:00
10:14 AM,79.2,68.4,69,30.29,10.0,ENE,4.6,-,N/A,,Clear,70,2013-07-14 14:14:00
10:35 AM,80.4,68.9,68,30.29,10.0,ESE,3.5,-,N/A,,Clear,120,2013-07-14 14:35:00
10:55 AM,81.5,69.1,66,30.29,10.0,East,6.9,-,N/A,,Clear,90,2013-07-14 14:55:00
11:15 AM,82.4,68.0,62,30.30,10.0,East,4.6,-,N/A,,Scattered Clouds,80,2013-07-14 15:15:00
11:35 AM,82.8,68.2,61,30.30,10.0,ESE,5.8,-,N/A,,Clear,110,2013-07-14 15:35:00
11:54 AM,83.8,67.3,57,30.30,10.0,East,9.2,-,N/A,,Clear,90,2013-07-14 15:54:00
12:15 PM,84.4,67.8,57,30.30,10.0,ESE,4.6,-,N/A,,Clear,110,2013-07-14 16:15:00
12:35 PM,84.6,66.6,55,30.30,10.0,SSE,6.9,-,N/A,,Clear,150,2013-07-14 16:35:00
12:55 PM,85.8,66.9,53,30.30,10.0,SE,3.5,-,N/A,,Clear,140,2013-07-14 16:55:00
1:15 PM,85.3,65.3,51,30.30,10.0,SE,3.5,-,N/A,,Clear,140,2013-07-14 17:15:00
1:34 PM,86.0,65.7,50,30.30,10.0,East,3.5,-,N/A,,Clear,90,2013-07-14 17:34:00
1:55 PM,85.5,64.0,49,30.30,10.0,East,5.8,-,N/A,,Clear,90,2013-07-14 17:55:00
2:15 PM,86.5,64.2,47,30.29,10.0,East,4.6,-,N/A,,Clear,90,2013-07-14 18:15:00
2:34 PM,86.7,64.0,47,30.29,10.0,Calm,Calm,-,N/A,,Clear,0,2013-07-14 18:34:00
2:55 PM,85.8,64.6,49,30.29,10.0,East,3.5,-,N/A,,Clear,80,2013-07-14 18:55:00
3:14 PM,87.1,65.8,49,30.28,10.0,ESE,6.9,-,N/A,,Scattered Clouds,120,2013-07-14 19:14:00
3:35 PM,87.6,66.4,49,30.28,10.0,SE,4.6,-,N/A,,Mostly Cloudy,140,2013-07-14 19:35:00
3:55 PM,87.3,67.3,51,30.27,10.0,East,5.8,-,N/A,,Scattered Clouds,80,2013-07-14 19:55:00
4:14 PM,87.3,67.8,52,30.27,10.0,East,10.4,-,N/A,,Scattered Clouds,80,2013-07-14 20:14:00
4:35 PM,87.3,67.8,52,30.27,10.0,ESE,4.6,-,N/A,,Scattered Clouds,120,2013-07-14 20:35:00
4:54 PM,87.3,67.6,52,30.27,10.0,ESE,5.8,-,N/A,,Mostly Cloudy,110,2013-07-14 20:54:00
5:15 PM,86.2,67.1,53,30.27,10.0,ESE,5.8,-,N/A,,Mostly Cloudy,110,2013-07-14 21:15:00
5:35 PM,86.9,67.3,52,30.27,10.0,East,4.6,-,N/A,,Mostly Cloudy,90,2013-07-14 21:35:00
5:54 PM,86.5,67.8,53,30.27,10.0,ESE,4.6,-,N/A,,Mostly Cloudy,120,2013-07-14 21:54:00
6:15 PM,87.3,67.6,52,30.27,10.0,East,6.9,-,N/A,,Mostly Cloudy,80,2013-07-14 22:15:00
6:34 PM,86.5,68.0,54,30.27,10.0,ESE,5.8,-,N/A,,Scattered Clouds,110,2013-07-14 22:34:00
6:55 PM,86.0,68.0,55,30.27,10.0,East,3.5,-,N/A,,Scattered Clouds,100,2013-07-14 22:55:00
7:15 PM,85.6,67.8,55,30.27,10.0,East,5.8,-,N/A,,Scattered Clouds,90,2013-07-14 23:15:00
7:34 PM,85.5,67.6,55,30.26,10.0,ESE,4.6,-,N/A,,Scattered Clouds,110,2013-07-14 23:34:00
7:55 PM,85.8,67.6,54,30.27,10.0,East,6.9,-,N/A,,Clear,100,2013-07-14 23:55:00
8:15 PM,85.3,67.6,55,30.27,10.0,ESE,8.1,-,N/A,,Scattered Clouds,110,2013-07-15 00:15:00
8:35 PM,84.4,67.5,57,30.27,10.0,East,5.8,-,N/A,,Clear,90,2013-07-15 00:35:00
8:55 PM,83.8,67.6,58,30.27,10.0,ESE,5.8,-,N/A,,Clear,120,2013-07-15 00:55:00
9:15 PM,82.9,68.0,60,30.28,10.0,ESE,4.6,-,N/A,,Clear,110,2013-07-15 01:15:00
9:35 PM,82.8,68.0,61,30.28,10.0,ESE,3.5,-,N/A,,Clear,110,2013-07-15 01:35:00
9:55 PM,81.7,68.0,63,30.29,10.0,Calm,Calm,-,N/A,,Clear,0,2013-07-15 01:55:00
10:14 PM,81.1,68.0,64,30.29,10.0,ESE,4.6,-,N/A,,Clear,120,2013-07-15 02:14:00
10:35 PM,80.8,67.5,64,30.29,10.0,ESE,3.5,-,N/A,,Clear,120,2013-07-15 02:35:00
10:55 PM,80.4,67.5,65,30.29,10.0,SE,3.5,-,N/A,,Clear,130,2013-07-15 02:55:00
11:14 PM,79.5,68.0,68,30.30,10.0,SE,3.5,-,N/A,,Clear,140,2013-07-15 03:14:00
11:35 PM,78.8,67.8,69,30.30,10.0,SSE,3.5,-,N/A,,Clear,160,2013-07-15 03:35:00
11:55 PM,78.1,66.9,68,30.31,10.0,Calm,Calm,-,N/A,,Clear,0,2013-07-15 03:55:00